Location: Observatoire
(46.1952°N, 5.3391°E)
Time: 02:36:37
(UTC+01:00)

Tiangong - Visible Passes

Search period start: 29 November 2023 00:00
Search period end: 09 December 2023 00:00
Orbit: 374 x 384 km, 41.5° (Epoch: 28 November)

Date Brightness Start Highest point End Pass type
(mag) Time Alt. Az. Time Alt. Az. Time Alt. Az.
29 Nov -0.2 18:35:28 10° WSW 18:38:08 25° SSW 18:39:36 18° SSE visible
30 Nov -0.5 17:33:56 10° WSW 17:36:47 31° S 17:39:36 10° SE visible
30 Nov 0.6 19:11:11 10° WSW 19:12:57 14° SSW 19:13:24 14° SSW visible
01 Dec 0.3 18:09:10 10° WSW 18:11:34 20° SSW 18:13:57 10° SSE visible
03 Dec 0.8 17:42:44 10° WSW 17:44:36 15° SSW 17:46:28 10° SSE visible
